Location: Borderline Observatory
(42.7345°N, 72.8696°W)
Time: 13:58:17
(UTC-04:00)

Daily predictions for brighter satellites

Satellite Brightness Start Highest point End
(mag) Time Altitude Azimuth Time Altitude Azimuth Time Altitude Azimuth
USA 229 DEB 4.5 20:10:10 10° SSE 20:15:47 28° ESE 20:21:27 10° NE
USA 229 4.5 20:10:18 10° SSE 20:15:54 28° ESE 20:21:33 10° NE
GRACE-1 4.1 20:13:32 10° N 20:16:16 73° W 20:18:58 10° S
GRACE-2 4.1 20:13:54 10° N 20:16:38 73° W 20:19:21 10° S
Cosmos 1315 Rocket 3.9 20:14:41 10° NNW 20:18:37 49° W 20:22:28 10° S
Cosmos 2142 Rocket 4.5 20:18:21 10° S 20:24:28 83° E 20:30:41 10° N
OAO 3 Rocket 4.3 20:21:06 10° WSW 20:25:22 31° S 20:29:41 10° SE
ALOS 3.8 20:21:02 10° SSW 20:25:23 38° W 20:29:45 10° NNW
YAOGAN 6 4.3 20:24:07 10° ESE 20:26:37 18° ENE 20:29:06 10° NNE
Cosmos 1933 3.7 20:26:31 10° SSE 20:30:21 44° E 20:34:11 10° NNE
Cosmos 1992 Rocket 4.0 20:27:00 10° S 20:32:12 73° ESE 20:37:27 10° NNE
Cosmos 2026 Rocket 4.0 20:26:44 10° N 20:32:59 86° E 20:39:07 10° S
Meteor 2-10 Rocket 4.3 20:28:27 10° SSE 20:33:46 38° E 20:39:03 10° NNE
Cosmos 1733 Rocket 3.1 20:34:28 10° N 20:38:56 77° E 20:43:23 10° SSE
Cosmos 2219 Rocket 3.9 20:38:26 10° ESE 20:39:24 11° E 20:40:45 10° E
USA 267 3.6 20:35:43 10° NE 20:42:15 73° NW 20:48:46 10° WSW
Cosmos 1862 3.3 20:40:11 10° N 20:44:15 87° E 20:48:17 10° S
Helios 1A 3.0 20:40:16 10° SSE 20:44:30 82° ENE 20:48:46 10° NNW
Cosmos 1862 Rocket 3.6 20:45:15 10° S 20:49:43 83° E 20:54:13 10° N
Cosmos 2263 Rocket 2.5 20:53:41 10° NNW 20:59:12 65° WSW 21:04:43 10° S
Cosmos 968 Rocket 3.5 20:59:38 10° NNW 21:04:52 77° ENE 21:09:04 16° SSE
SAR-Lupe-4 4.3 21:03:37 10° S 21:07:07 53° W 21:10:40 10° NNW
USA 186 3.8 21:04:45 10° SSW 21:07:07 24° W 21:09:37 10° NW
Cosmos 1939 Rocket 2.9 21:03:23 11° S 21:07:17 83° WSW 21:11:18 10° NNW
Cosmos 1703 Rocket 3.7 21:06:20 11° SSE 21:10:26 52° E 21:14:44 10° NNE
Cosmos 2322 Rocket 3.7 21:06:37 10° SW 21:11:52 40° WNW 21:17:09 10° NNE
Cosmos 2237 4.4 21:06:34 10° S 21:12:05 51° ESE 21:17:37 10° NE
Atlas Centaur 2 3.6 21:09:57 10° SW 21:15:43 31° S 21:19:23 21° SE
USA 234 3.3 21:12:08 19° ESE 21:17:01 82° NE 21:23:34 10° NW
Cosmos 2360 Rocket 2.2 21:13:41 10° SSW 21:19:20 84° WNW 21:25:03 10° NNE
Abrixas rocket 3.9 21:17:10 10° WNW 21:20:07 29° N 21:22:26 14° ENE
MetOp-B 4.4 21:17:56 23° SE 21:21:05 50° ENE 21:26:15 10° N
COSMOS 2428 2.9 21:16:07 10° S 21:21:30 46° ESE 21:26:56 10° NE
Cosmos 2266 Rocket 4.0 21:15:44 10° N 21:22:03 73° E 21:27:05 17° SSE
MOS 1-B Rocket 4.4 21:19:05 22° ESE 21:22:15 41° ENE 21:27:27 10° N
Meteor 1-29 3.9 21:18:57 10° N 21:22:19 48° WNW 21:25:39 10° SSW
Envisat 3.7 21:18:02 10° S 21:22:58 52° W 21:27:57 10° NNW
CZ-4B DEB 4.3 21:22:32 11° SSW 21:25:06 32° W 21:27:52 10° NNW
Lacrosse 4 Rocket 4.2 21:23:39 10° WNW 21:25:57 14° WSW 21:28:17 10° SW
Helios 1B rocket 3.7 21:22:07 10° N 21:26:00 42° WNW 21:29:52 10° SW
Cosmos 1867 3.9 21:21:57 10° NW 21:27:20 63° WSW 21:30:53 21° SSE
H-2A R/B 3.1 21:28:32 23° E 21:30:08 28° ENE 21:34:18 10° N
ATLAS 5 CENTAUR R/B 3.0 21:25:08 10° NW 21:31:01 55° WSW 21:35:40 19° S
Milstar 3 4.3 21:25:55 10° WSW 21:31:06 19° SSW 21:33:53 15° S
Cosmos 1844 4.3 21:26:44 10° NNW 21:32:08 41° ENE 21:34:34 27° ESE
NOAA 11 4.2 21:29:03 25° SSE 21:32:14 66° ENE 21:37:41 10° N
Cosmos 2221 Rocket 3.5 21:32:02 22° S 21:34:50 72° E 21:39:16 10° NNE
YAOGAN 11 4.2 21:33:34 34° SE 21:35:15 60° ENE 21:39:31 10° N
Meteor 1-14 Rocket 4.3 21:30:57 10° N 21:36:40 86° W 21:40:44 21° S
Cosmos 2322 4.0 21:31:22 10° SSW 21:37:04 72° WNW 21:42:47 10° NNE
Meteor 1-25 Rocket 4.1 21:32:10 10° N 21:37:45 72° E 21:40:41 29° SSE
ARGOS 3.3 21:37:29 31° SE 21:39:53 57° ENE 21:45:10 10° N
Cosmos 1606 3.5 21:42:02 33° ENE 21:42:02 33° ENE 21:45:04 10° NNE
ERS-1 Rocket 3.2 21:42:02 22° S 21:45:15 68° WSW 21:50:16 10° NNW
SeaSat 1 2.9 21:44:57 33° ESE 21:46:39 47° ENE 21:51:23 10° NNW
Meteor 1-20 Rocket 4.1 21:41:50 10° N 21:47:28 77° E 21:50:10 32° SSE
Cosmos 2208 Rocket 4.4 21:53:06 40° ESE 21:53:46 42° ESE 21:58:44 10° NE
H-2A R/B 3.3 21:53:54 26° ENE 21:54:07 26° ENE 21:57:46 10° N
Cosmos 2237 Rocket 3.1 21:58:36 30° E 21:58:36 30° E 22:02:54 10° NE
Cosmos 1553 Rocket 4.5 21:57:07 36° ESE 21:58:32 40° E 22:04:16 10° NNE
Cosmos 2333 4.1 21:53:31 10° SSW 21:59:14 83° ESE 22:05:03 10° NNE
NOSS 3-1 (C) 3.3 21:54:38 12° SSW 21:59:52 58° ESE 22:06:08 10° NE
YAOGAN 6 4.3 21:58:12 20° SW 21:59:57 29° W 22:03:10 10° NW
Cosmos 1844 Rocket 2.6 21:55:13 10° NNW 22:00:49 88° ENE 22:02:44 43° SSE
Cosmos 2333 Rocket 2.5 22:00:04 42° SE 22:00:58 45° ESE 22:06:26 10° NE
SPOT 5 2.7 21:59:59 45° SSE 22:01:28 88° WSW 22:06:05 10° NNW
Cosmos 2278 Rocket 2.9 21:56:48 10° NNW 22:02:08 40° ENE 22:03:38 34° E
SL-08 RB Rocket 3.6 22:01:17 54° SE 22:02:14 73° ENE 22:06:47 10° N
Meteor 2-6 Rocket 4.3 22:01:35 37° SSE 22:03:53 64° E 22:09:47 10° NNE
USA 229 DEB 4.2 21:59:29 10° SW 22:06:15 63° NW 22:13:10 10° NNE
USA 229 4.1 21:59:35 10° SW 22:06:21 63° NW 22:13:17 10° NNE
MetOp-A 4.4 22:04:25 30° S 22:07:00 62° WSW 22:12:20 10° NNW
CZ-4C R/B 3.3 22:01:37 10° NNW 22:08:29 53° NE 22:11:50 32° ESE
Iridium 4 Rocket 4.4 22:07:25 10° NNE 22:10:06 25° ENE 22:10:06 25° ENE
Cosmos 1898 Rocket 4.3 22:10:47 10° N 22:15:31 35° ENE 22:16:06 34° ENE
ASTEX 1 3.7 22:15:27 47° E 22:15:44 48° ENE 22:20:31 10° N
Cosmos 1300 Rocket 4.4 22:11:53 10° N 22:15:29 36° ENE 22:15:29 36° ENE
NOSS 3-1 (A) 3.4 22:15:18 47° SSE 22:16:33 56° ESE 22:22:48 10° NE
SPOT 1/Viking Rocket 3.5 22:16:34 53° SSE 22:17:50 89° WSW 22:23:05 10° NNW
Cosmos 2219 Rocket 2.0 22:20:01 36° SSW 22:22:23 84° ESE 22:28:02 10° NNE
USA 245 4.4 22:21:27 38° SSW 22:23:24 59° WSW 22:28:08 10° NNW
Okean 1-7 4.4 22:21:00 18° SW 22:23:47 37° WNW 22:27:54 10° N
Okean 2 Rocket 4.3 22:25:26 10° NNW 22:29:36 37° W 22:30:55 30° SW
S3M 3.9 22:28:26 55° SE 22:29:37 67° E 22:35:48 10° NNE
Landsat 7 3.6 22:29:26 77° ESE 22:29:39 79° ENE 22:34:25 10° N
Cosmos 1782 3.7 22:30:21 40° WSW 22:31:03 45° WNW 22:34:55 10° N
Cosmos 2084 3.9 22:34:15 10° NW 22:37:17 54° NW 22:37:17 54° NW
Meteor 2-11 Rocket 4.4 22:38:49 61° SE 22:39:25 64° E 22:45:27 10° NNE
Cosmos 1633 3.6 22:36:32 10° NNW 22:39:16 45° NW 22:39:16 45° NW
ATLAS 3B R/B 4.3 22:38:46 10° NNW 22:44:20 25° NNE 22:47:54 17° ENE
Terra 1.8 22:45:02 75° NE 22:45:02 75° NE 22:49:33 10° N
Cosmos 1346 Rocket 3.7 22:46:34 47° N 22:46:34 47° N 22:49:32 10° N
Meteor 1-27 Rocket 3.6 22:46:37 66° SSW 22:47:27 85° W 22:53:04 10° N
Cosmos 468 Rocket 4.5 22:50:38 49° ENE 22:50:38 49° ENE 22:54:48 10° NNE
deb Chang Zheng 4 4.2 22:50:59 10° NNE 22:54:23 53° NNE 22:54:23 53° NNE
Cosmos 2297 4.1 22:52:47 10° NNW 22:58:22 51° ENE 22:58:30 51° ENE
CZ-4B R/B 4.1 22:54:46 10° NNE 22:58:08 43° NE 22:58:08 43° NE
USA 234 4.3 22:59:28 28° SW 23:00:26 29° SW 23:05:58 10° WNW
Geosat 4.3 22:56:01 10° NNE 23:00:07 59° NE 23:00:07 59° NE
Spot 4 4.3 23:02:26 54° NNE 23:02:26 54° NNE 23:06:22 10° N
Cosmos 1745 Rocket 4.0 22:55:34 10° N 23:01:55 77° W 23:02:51 65° SSW
CARTOSAT-1 4.3 23:02:55 52° NW 23:02:55 52° NW 23:06:23 10° NNW
Atlas Centaur 2 4.2 22:58:24 10° WSW 23:02:01 23° SW 23:02:01 23° SW
H-2A R/B 3.0 23:09:10 34° WSW 23:09:27 35° W 23:13:57 10° NNW
Cosmos 2285 Rocket 4.2 23:13:34 56° ENE 23:13:34 56° ENE 23:19:10 10° NNE
Meteor 1-11 Rocket 4.2 23:07:57 10° NNW 23:13:17 50° W 23:13:39 49° WSW
Cosmos 1980 4.1 23:13:32 51° WSW 23:14:37 60° WNW 23:20:14 10° NNE
Cosmos 2298 Rocket 4.2 23:10:40 10° NNW 23:15:27 71° NW 23:15:27 71° NW
CZ-4 R/B 4.3 23:11:18 10° NNE 23:15:17 60° N 23:15:17 60° N
Timation 1 Rocket 4.3 23:12:08 10° NNW 23:18:00 73° WSW 23:18:00 73° WSW
NOSS 0 Rocket 4.4 23:16:17 34° WSW 23:18:47 55° WNW 23:24:51 10° NNE
Okean 1 Rocket 4.1 23:14:37 10° NNW 23:17:55 45° NW 23:17:55 45° NW
SL-16 R/B 2.8 23:22:16 45° NE 23:22:16 45° NE 23:26:21 10° NNE
SeaSat 1 4.1 23:24:45 24° W 23:24:45 24° W 23:28:21 10° NW
H-2A R/B 3.9 23:31:01 26° WNW 23:31:01 26° WNW 23:33:50 10° NW
Cosmos 1937 Rocket 4.0 23:27:31 10° NNW 23:31:47 56° NW 23:31:47 56° NW
Cosmos 2237 Rocket 3.3 23:40:20 34° W 23:41:52 41° WNW 23:47:15 10° NNE
Cosmos 2333 Rocket 3.9 23:41:57 17° WSW 23:45:23 30° NW 23:50:26 10° N
Cosmos 2278 Rocket 3.5 23:41:10 10° NW 23:45:29 30° W 23:45:29 30° W
CZ-2C R/B 4.0 23:41:06 10° NNE 23:44:26 30° ENE 23:44:26 30° ENE
ALOS 2 4.4 23:48:06 27° NNE 23:48:06 27° NNE 23:50:27 10° N
Cosmos 2315 Rocket 4.0 23:51:45 74° NW 23:51:45 74° NW 23:57:43 10° N
